Location: Biltmore Gardens
(41.6070°N, 83.4666°W)
Time: 13:08:09
(UTC+00:00)

ATLAS 2AS CENTAUR R/B - Pass Details

Date: 14 July 2020
Orbit: 930 x 1282 km, 63.7° (Epoch: 19 July)

Event Time Altitude Azimuth Distance (km) Brightness Sun altitude
Rises 03:28:36 0° 321° (NW) 4,132 7.4 -19.9°
Reaches altitude 10° 03:31:30 10° 318° (NW) 3,118 6.3 -20.1°
Maximum altitude 03:38:40 53° 244° (WSW) 1,344 3.2 -20.8°
Enters shadow 03:41:53 30° 184° (S) 1,812 3.4 -21.1°
